This demonstration page uses our WeatherBlox Daily Observations layout. Learn more.

Left ArrowRight Arrow

Hourly Observations for July 31, 2015

Temp ( °F °C ) Dew Point ( °F °C ) Humidity (%) Winds ( mph kmh ) Pressure ( in mb ) Visibility ( mi km ) Precip ( " mm )
12:53 am 00:53 Clear 65 18.3 63 17.2 93 93 N N/A 30.06 1018 10 16 N/A
1:53 am 01:53 Clear 65 18.3 63 17.2 93 93 N N/A 30.06 1018 10 16 N/A
2:53 am 02:53 Clear 64 17.8 63 17.2 96 96 N N/A 30.05 1018 10 16 N/A
3:53 am 03:53 Clear 64 17.8 62 16.7 93 93 N N/A 30.05 1018 10 16 N/A
4:53 am 04:53 Clear 63 17.2 61 16.1 93 93 N N/A 30.04 1017 10 16 N/A
5:53 am 05:53 Clear 61 16.1 60 15.6 97 97 N N/A 30.03 1017 7 11 N/A
6:53 am 06:53 Sunny with Mist and Fog 61 16.1 60 15.6 97 97 N N/A 30.04 1017 5 8 N/A
7:53 am 07:53 Sunny 67 19.4 63 17.2 87 87 N N/A 30.06 1018 10 16 N/A
8:53 am 08:53 Sunny 71 21.7 64 17.8 79 79 N N/A 30.06 1018 10 16 N/A
9:53 am 09:53 Sunny 77 25 66 18.9 69 69 W 6 9 30.05 1018 10 16 N/A
10:53 am 10:53 Sunny 80 26.7 66 18.9 62 62 WNW 6 9 30.05 1018 10 16 N/A
11:53 am 11:53 Sunny 84 28.9 65 18.3 53 53 VRB 5 7 30.05 1018 10 16 N/A
12:53 pm 12:53 Sunny 85 29.4 61 16.1 45 45 NW 12 19 30.03 1017 10 16 N/A
1:53 pm 13:53 Sunny 86 30 59 15 40 40 WNW 9 15 30.02 1017 10 16 N/A
2:53 pm 14:53 Sunny 86 30 59 15 40 40 NW 14 22 30.00 1016 10 16 N/A
3:53 pm 15:53 Partly Cloudy 86 30 60 15.6 42 42 W 8 13 29.99 1016 10 16 N/A
4:53 pm 16:53 Mostly Sunny 87 30.6 57 13.9 36 36 VRB 6 9 29.97 1015 10 16 N/A
5:53 pm 17:53 Sunny 87 30.6 60 15.6 40 40 VRB 7 11 29.96 1014 10 16 N/A
6:53 pm 18:53 Sunny 86 30 61 16.1 43 43 W 8 13 29.94 1014 10 16 N/A
7:53 pm 19:53 Sunny 83 28.3 60 15.6 46 46 WSW 6 9 29.93 1014 10 16 N/A
8:53 pm 20:53 Clear 75 23.9 63 17.2 66 66 N N/A 29.93 1014 10 16 N/A
9:53 pm 21:53 Clear 73 22.8 61 16.1 66 66 VRB 3 6 29.93 1014 10 16 N/A
10:53 pm 22:53 Clear 74 23.3 62 16.7 67 67 WSW 3 6 29.96 1015 10 16 N/A
11:53 pm 23:53 Clear 67 19.4 63 17.2 87 87 N N/A 29.96 1015 10 16 N/A

Powered by AerisWeather